Date String (YYYY-MM-DD hh:mm:ss) UTC,Instrument flags,absolute air pressure of the measurement (hPa),sample flow rate (lpm),inlet stack bypass flow (lpm),air temperature of the measurement (°C),ambient temperature measured by the external sensor (°C),aerosol sample conditioner tube jacket temperature (°C),OPC LED temperature (°C),internal box temperature (°C),relative humidity of the measurement (%),span deviation,mass concentration of particles derived from Lorenz-Mie calculation of OPC scattering (μg/m³),mass concentration of particles derived from Lorenz-Mie calculation of OPC scattering (μg/m³),mass concentration of particles derived from Lorenz-Mie calculation of OPC scattering (μg/m³)
DateTimeUTC,F1_M11,P_M11,Q1_M11,Q2_M11,T1_M11,T2_M11,T3_M11,T4_M11,T5_M11,U1_M11,ZSPAN_M11,X2_M11,X0_M11,X1_M11
2023-10-04 19:00:00,SystemResetWarning,0830.6,4.99,000.00,028.4,026.2,000.0,037.0,030.1,16.4,0000.0,0003.62,0012.13,0002.50
2023-10-04 19:01:00,SystemResetWarning,0830.7,4.99,000.00,028.5,026.5,000.0,037.0,030.2,16.2,0000.0,0003.64,0012.36,0002.49
2023-10-04 19:02:00,SystemResetWarning,0830.7,5.00,000.00,028.5,026.8,000.0,037.0,030.2,16.0,0000.0,0003.63,0012.45,0002.48
2023-10-04 19:03:00,SystemResetWarning,0830.6,5.01,000.00,028.5,027.0,000.0,037.0,030.3,15.9,0000.0,0003.63,0012.39,0002.48
2023-10-04 19:04:00,SystemResetWarning,0830.7,5.00,000.00,028.6,027.2,000.0,037.0,030.3,16.0,0000.0,0003.64,0012.01,0002.47
2023-10-04 19:05:00,SystemResetWarning,0830.7,5.00,000.00,028.6,027.3,000.0,037.0,030.4,15.7,0000.0,0003.61,0010.83,0002.44
2023-10-04 19:06:00,SystemResetWarning,0830.7,5.00,000.00,028.6,027.5,000.0,037.1,030.4,15.7,0000.0,0003.62,0010.62,0002.42
2023-10-04 19:07:00,SystemResetWarning,0830.7,5.00,000.00,028.7,027.6,000.0,037.1,030.5,15.5,0000.0,0003.63,0011.24,0002.40
2023-10-04 19:08:00,SystemResetWarning,0830.6,5.00,000.00,028.7,027.7,000.0,037.1,030.6,15.4,0000.0,0003.56,0011.50,0002.38
2023-10-04 19:09:00,SystemResetWarning,0830.6,5.00,000.00,028.8,027.8,000.0,037.1,030.6,15.3,0000.0,0003.51,0010.98,0002.37
2023-10-04 19:10:00,SystemResetWarning,0830.6,4.99,000.00,028.8,027.3,000.0,037.1,030.6,15.2,0000.0,0003.47,0010.75,0002.36
2023-10-04 19:11:00,SystemResetWarning,0830.5,5.00,000.00,028.8,025.6,000.0,037.1,030.4,15.1,0000.0,0003.42,0010.50,0002.32
2023-10-04 19:12:00,SystemResetWarning,0830.4,5.01,000.00,028.7,025.2,000.0,037.0,030.3,14.9,0000.0,0003.37,0009.94,0002.32
2023-10-04 19:13:00,SystemResetWarning,0830.5,5.01,000.00,028.6,025.4,000.0,037.0,030.1,14.9,0000.0,0003.36,0009.42,0002.30
2023-10-04 19:14:00,SystemResetWarning,0830.4,5.00,000.00,028.6,025.7,000.0,037.1,030.1,15.0,0000.0,0003.34,0009.04,0002.29
2023-10-04 19:15:00,SystemResetWarning,0830.4,5.00,000.00,028.6,026.0,000.0,037.1,030.2,15.0,0000.0,0003.29,0008.24,0002.27
2023-10-04 19:16:00,SystemResetWarning,0830.4,5.00,000.00,028.6,026.3,000.0,037.1,030.2,15.4,0000.0,0003.27,0008.24,0002.27
2023-10-04 19:17:00,SystemResetWarning,0830.4,5.00,000.00,028.6,026.6,000.0,037.1,030.3,15.1,0000.0,0003.24,0008.56,0002.25
2023-10-04 19:18:00,SystemResetWarning,0830.4,5.00,000.00,028.6,026.9,000.0,037.1,030.3,15.1,0000.0,0003.20,0008.25,0002.23
2023-10-04 19:19:00,SystemResetWarning,0830.4,5.00,000.00,028.6,027.1,000.0,037.1,030.4,15.0,0000.0,0003.21,0007.80,0002.22
2023-10-04 19:20:00,SystemResetWarning,0830.5,5.00,000.00,028.7,027.3,000.0,037.1,030.4,15.0,0000.0,0003.22,0007.93,0002.19
2023-10-04 19:21:00,SystemResetWarning,0830.4,5.00,000.00,028.7,027.4,000.0,037.1,030.5,15.2,0000.0,0003.22,0007.96,0002.18
2023-10-04 19:22:00,SystemResetWarning,0830.4,5.00,000.00,028.7,027.6,000.0,037.1,030.5,14.8,0000.0,0003.20,0008.94,0002.17
2023-10-04 19:23:00,SystemResetWarning,0830.3,5.00,000.00,028.8,027.7,000.0,037.2,030.6,14.9,0000.0,0003.19,0009.23,0002.16
2023-10-04 19:24:00,SystemResetWarning,0830.3,4.99,000.00,028.8,027.1,000.0,037.2,030.6,14.8,0000.0,0003.18,0009.78,0002.16
2023-10-04 19:25:00,SystemResetWarning,0830.3,5.00,000.00,028.8,025.0,000.0,037.1,030.3,14.9,0000.0,0003.18,0010.06,0002.14
2023-10-04 19:26:00,SystemResetWarning,0830.3,5.01,000.00,028.7,024.1,000.0,037.0,030.1,14.8,0000.0,0003.22,0010.56,0002.17
2023-10-04 19:27:00,SystemResetWarning,0830.3,5.01,000.00,028.6,024.3,000.0,037.0,030.0,14.9,0000.0,0003.25,0010.94,0002.17
2023-10-04 19:28:00,SystemResetWarning,0830.3,5.00,000.00,028.5,024.7,000.0,037.0,029.9,15.1,0000.0,0003.26,0010.83,0002.18
2023-10-04 19:29:00,SystemResetWarning,0830.2,5.00,000.00,028.4,025.1,000.0,037.0,029.9,15.1,0000.0,0003.31,0011.14,0002.18
2023-10-04 19:30:00,SystemResetWarning,0830.3,4.99,000.00,028.4,025.6,000.0,037.0,030.0,15.0,0000.0,0003.34,0012.09,0002.19
2023-10-04 19:31:00,SystemResetWarning,0830.3,4.99,000.00,028.4,025.9,000.0,037.0,030.0,15.2,0000.0,0003.30,0012.01,0002.19
2023-10-04 19:32:00,SystemResetWarning,0830.2,5.00,000.00,028.4,026.3,000.0,037.0,030.1,15.1,0000.0,0003.26,0012.00,0002.17
2023-10-04 19:33:00,SystemResetWarning,0830.3,5.00,000.00,028.4,026.6,000.0,037.0,030.1,15.1,0000.0,0003.26,0011.21,0002.17
2023-10-04 19:34:00,SystemResetWarning,0830.2,5.01,000.00,028.5,026.8,000.0,037.0,030.2,15.0,0000.0,0003.28,0011.50,0002.17
2023-10-04 19:35:00,SystemResetWarning,0830.2,5.01,000.00,028.5,027.0,000.0,037.0,030.2,14.8,0000.0,0003.27,0011.15,0002.16
2023-10-04 19:36:00,SystemResetWarning,0830.3,5.00,000.00,028.5,027.2,000.0,037.0,030.3,14.9,0000.0,0003.27,0010.79,0002.14
2023-10-04 19:37:00,SystemResetWarning,0830.3,5.01,000.00,028.6,027.3,000.0,037.0,030.4,14.7,0000.0,0003.21,0010.51,0002.10
2023-10-04 19:38:00,SystemResetWarning,0830.3,5.00,000.00,028.6,027.5,000.0,037.0,030.4,14.7,0000.0,0003.16,0010.28,0002.09
2023-10-04 19:39:00,SystemResetWarning,0830.2,4.99,000.00,028.7,027.6,000.0,037.0,030.5,14.6,0000.0,0003.15,0010.78,0002.06
2023-10-04 19:40:00,SystemResetWarning,0830.2,5.00,000.00,028.7,027.7,000.0,037.1,030.5,14.6,0000.0,0003.12,0010.29,0002.05
2023-10-04 19:41:00,SystemResetWarning,0830.2,5.00,000.00,028.7,027.7,000.0,037.1,030.6,14.5,0000.0,0003.04,0009.59,0002.01
2023-10-04 19:42:00,SystemResetWarning,0830.2,4.98,000.00,028.7,026.4,000.0,037.0,030.5,14.7,0000.0,0003.11,0009.90,0002.00
2023-10-04 19:43:00,SystemResetWarning,0830.2,5.01,000.00,028.6,024.6,000.0,037.0,030.2,14.7,0000.0,0003.13,0010.69,0002.00
2023-10-04 19:44:00,SystemResetWarning,0830.2,5.01,000.00,028.6,024.3,000.0,036.9,030.1,14.8,0000.0,0003.10,0010.55,0001.99
2023-10-04 19:45:00,SystemResetWarning,0830.2,4.99,000.00,028.5,024.6,000.0,036.9,029.9,15.1,0000.0,0003.04,0009.94,0001.97
2023-10-04 19:46:00,SystemResetWarning,0830.1,5.00,000.00,028.4,025.0,000.0,036.9,029.9,15.1,0000.0,0002.99,0010.05,0001.95
2023-10-04 19:47:00,SystemResetWarning,0830.2,5.01,000.00,028.4,025.4,000.0,036.9,029.9,15.1,0000.0,0002.96,0010.37,0001.94
2023-10-04 19:48:00,SystemResetWarning,0830.1,4.99,000.00,028.4,025.9,000.0,036.9,030.0,14.9,0000.0,0002.96,0010.57,0001.94
2023-10-04 19:49:00,SystemResetWarning,0830.1,5.00,000.00,028.4,026.2,000.0,036.9,030.1,14.8,0000.0,0002.95,0010.35,0001.93
2023-10-04 19:50:00,SystemResetWarning,0830.1,5.00,000.00,028.4,026.5,000.0,036.9,030.1,14.8,0000.0,0002.91,0010.13,0001.92
2023-10-04 19:51:00,SystemResetWarning,0830.1,5.00,000.00,028.4,026.8,000.0,036.9,030.2,14.7,0000.0,0002.87,0009.91,0001.90
2023-10-04 19:52:00,SystemResetWarning,0830.1,4.99,000.00,028.5,027.0,000.0,036.9,030.2,14.8,0000.0,0002.84,0009.97,0001.89
2023-10-04 19:53:00,SystemResetWarning,0830.1,5.00,000.00,028.5,027.2,000.0,036.9,030.3,14.7,0000.0,0002.78,0009.66,0001.87
2023-10-04 19:54:00,SystemResetWarning,0830.1,5.00,000.00,028.6,027.4,000.0,037.0,030.4,14.7,0000.0,0002.78,0008.96,0001.87
2023-10-04 19:55:00,SystemResetWarning,0830.0,5.00,000.00,028.6,027.5,000.0,037.0,030.4,14.7,0000.0,0002.86,0008.81,0001.86
2023-10-04 19:56:00,SystemResetWarning,0830.0,5.00,000.00,028.6,027.6,000.0,037.0,030.5,14.7,0000.0,0002.86,0008.75,0001.85
2023-10-04 19:57:00,SystemResetWarning,0830.0,5.00,000.00,028.7,027.7,000.0,037.0,030.5,14.7,0000.0,0002.82,0008.59,0001.85
2023-10-04 19:58:00,SystemResetWarning,0830.0,5.00,000.00,028.7,027.8,000.0,037.1,030.6,14.6,0000.0,0002.84,0008.29,0001.84
2023-10-04 19:59:00,SystemResetWarning,0830.0,4.97,000.00,028.8,026.6,000.0,037.0,030.5,14.7,0000.0,0002.84,0008.79,0001.85
